This is the latest recevied weather packets stored in our database for station/object OK1OBR-13. If no packets are shown the sender has not sent any weather packets the latest 1 day(s).
| Time | Temp. | Humidity | Pressure | Rain* | Wind** | Luminosity | Snow |
|---|---|---|---|---|---|---|---|
| 1778065382 | 17.78° C | 58% | 929.8 hPa | 0.25 mm | - | - | - |
| 1778065262 | 17.78° C | 57% | 929.7 hPa | 0.25 mm | - | - | - |
| 1778065201 | 17.78° C | 59% | 929.8 hPa | 0.25 mm | - | - | - |
| 1778065081 | 17.78° C | 56% | 930.1 hPa | 0.25 mm | - | - | - |
| 1778064903 | 17.78° C | 56% | 930 hPa | 0.25 mm | - | - | - |
| 1778064782 | 17.78° C | 56% | 929.9 hPa | 0.25 mm | - | - | - |
| 1778064661 | 17.78° C | 57% | 929.8 hPa | 0.25 mm | - | - | - |
| 1778064481 | 17.78° C | 60% | 930 hPa | 0.25 mm | - | - | - |
| 1778064361 | 17.78° C | 59% | 929.9 hPa | 0.25 mm | - | - | - |
| 1778064301 | 17.78° C | 57% | 929.8 hPa | 0.25 mm | - | - | - |
| 1778064182 | 17.78° C | 57% | 929.8 hPa | 0.25 mm | - | - | - |
| 1778064062 | 18.33° C | 59% | 929.8 hPa | 0.25 mm | - | - | - |
| 1778063942 | 18.33° C | 58% | 929.7 hPa | 0.25 mm | - | - | - |
| 1778063581 | 18.33° C | 56% | 929.9 hPa | 0.25 mm | - | - | - |
| 1778063521 | 17.78° C | 56% | 929.8 hPa | 0.25 mm | - | - | - |
| 1778063281 | 17.78° C | 60% | 929.9 hPa | 0.25 mm | - | - | - |
| 1778063221 | 17.78° C | 59% | 930.1 hPa | 0.25 mm | - | - | - |
| 1778063041 | 17.22° C | 61% | 929.9 hPa | 0.25 mm | - | - | - |
| 1778062801 | 17.22° C | 60% | 930 hPa | 0.25 mm | - | - | - |
| 1778062742 | 17.22° C | 59% | 930 hPa | 0.25 mm | - | - | - |
| 1778062621 | 17.22° C | 60% | 930 hPa | 0.25 mm | - | - | - |
| 1778062021 | 17.22° C | 60% | 930.2 hPa | 0.25 mm | - | - | - |
| 1778061961 | 17.22° C | 62% | 930.1 hPa | 0.25 mm | - | - | - |
| 1778061781 | 17.78° C | 62% | 930 hPa | 0.25 mm | - | - | - |
| 1778061721 | 17.78° C | 62% | 930 hPa | 0.25 mm | - | - | - |
* Rain since midnight (hover to see other rain measurements)
** Current wind speed in m/s (hover to see current wind gust speed)